Time,TemperatureF,DewpointF,PressureIn,WindDirection,WindDirectionDegrees,WindSpeedMPH,WindSpeedGustMPH,Humidity,HourlyPrecipIn,Conditions,Clouds,dailyrainin,SoftwareType,DateUTC
2013-07-03 00:23:00,78.0,76.0,-100.00,NNE,16,3.0,-999.0,91,0.00,,,-99.99,,2013-07-03 05:23:00,
2013-07-03 00:38:00,78.0,76.0,-100.00,NNE,16,3.0,-999.0,91,0.00,,,-99.99,,2013-07-03 05:38:00,
2013-07-03 00:45:00,79.0,77.0,-100.00,NNE,27,4.0,-999.0,92,0.00,,,-99.99,,2013-07-03 05:45:00,
2013-07-03 01:24:00,79.0,77.0,-100.00,NNE,27,4.0,-999.0,92,0.00,,,-99.99,,2013-07-03 06:24:00,
2013-07-03 01:45:00,80.0,76.0,-100.00,NNE,27,3.0,-999.0,90,0.00,,,-99.99,,2013-07-03 06:45:00,
2013-07-03 02:26:00,80.0,76.0,-100.00,NNE,27,3.0,-999.0,90,0.00,,,-99.99,,2013-07-03 07:26:00,
2013-07-03 02:37:00,80.0,76.0,-100.00,NNE,27,3.0,-999.0,90,0.00,,,-99.99,,2013-07-03 07:37:00,
2013-07-03 02:45:00,78.0,76.0,-100.00,North,354,3.0,-999.0,92,0.00,,,-99.99,,2013-07-03 07:45:00,
2013-07-03 03:25:00,78.0,76.0,-100.00,North,354,3.0,-999.0,92,0.00,,,-99.99,,2013-07-03 08:25:00,
2013-07-03 03:36:00,78.0,76.0,-100.00,North,354,3.0,-999.0,92,0.00,,,-99.99,,2013-07-03 08:36:00,
2013-07-03 03:45:00,76.0,-99.9,-100.00,WSW,247,3.0,-999.0,109,0.03,,,-99.99,,2013-07-03 08:45:00,
2013-07-03 04:27:00,76.0,-99.9,-100.00,WSW,247,3.0,-999.0,109,0.03,,,-99.99,,2013-07-03 09:27:00,
2013-07-03 04:41:00,76.0,-99.9,-100.00,WSW,247,3.0,-999.0,109,0.03,,,-99.99,,2013-07-03 09:41:00,
2013-07-03 05:29:00,76.0,-99.9,-100.00,North,359,4.0,-999.0,113,0.00,,,-99.99,,2013-07-03 10:29:00,
2013-07-03 05:38:00,76.0,-99.9,-100.00,North,359,4.0,-999.0,113,0.00,,,-99.99,,2013-07-03 10:38:00,
2013-07-03 05:45:00,75.0,-99.9,-100.00,North,351,4.0,-999.0,118,0.00,,,-99.99,,2013-07-03 10:45:00,
2013-07-03 06:40:00,75.0,-99.9,-100.00,North,351,4.0,-999.0,118,0.00,,,-99.99,,2013-07-03 11:40:00,
2013-07-03 06:45:00,75.0,-99.9,-100.00,North,360,7.0,-999.0,118,0.00,,,-99.99,,2013-07-03 11:45:00,
2013-07-03 07:27:00,75.0,-99.9,-100.00,North,360,7.0,-999.0,118,0.00,,,-99.99,,2013-07-03 12:27:00,
2013-07-03 07:38:00,75.0,-99.9,-100.00,North,360,7.0,-999.0,118,0.00,,,-99.99,,2013-07-03 12:38:00,
2013-07-03 07:45:00,74.0,-99.9,-100.00,North,354,9.0,-999.0,119,0.00,,,-99.99,,2013-07-03 12:45:00,
2013-07-03 08:26:00,74.0,-99.9,-100.00,North,354,9.0,-999.0,119,0.00,,,-99.99,,2013-07-03 13:26:00,
2013-07-03 08:45:00,76.0,-99.9,-100.00,North,357,9.0,-999.0,114,0.00,,,-99.99,,2013-07-03 13:45:00,
2013-07-03 09:27:00,76.0,-99.9,-100.00,North,357,9.0,-999.0,114,0.00,,,-99.99,,2013-07-03 14:27:00,
2013-07-03 09:45:00,78.0,77.0,-100.00,North,360,7.0,-999.0,95,0.00,,,-99.99,,2013-07-03 14:45:00,
2013-07-03 10:26:00,78.0,77.0,-100.00,North,360,7.0,-999.0,95,0.00,,,-99.99,,2013-07-03 15:26:00,
2013-07-03 10:37:00,78.0,77.0,-100.00,North,360,7.0,-999.0,95,0.00,,,-99.99,,2013-07-03 15:37:00,
2013-07-03 10:45:00,79.0,77.0,-100.00,NNE,17,6.0,-999.0,94,0.00,,,-99.99,,2013-07-03 15:45:00,
2013-07-03 11:23:00,79.0,77.0,-100.00,NNE,17,6.0,-999.0,94,0.00,,,-99.99,,2013-07-03 16:23:00,
2013-07-03 11:38:00,79.0,77.0,-100.00,NNE,17,6.0,-999.0,94,0.00,,,-99.99,,2013-07-03 16:38:00,
2013-07-03 11:45:00,81.0,77.0,-100.00,ENE,60,10.0,-999.0,88,0.00,,,-99.99,,2013-07-03 16:45:00,
2013-07-03 12:40:00,81.0,77.0,-100.00,ENE,60,10.0,-999.0,88,0.00,,,-99.99,,2013-07-03 17:40:00,
2013-07-03 12:45:00,83.0,73.0,-100.00,East,92,8.0,-999.0,73,0.00,,,-99.99,,2013-07-03 17:45:00,
2013-07-03 13:25:00,83.0,73.0,-100.00,East,92,8.0,-999.0,73,0.00,,,-99.99,,2013-07-03 18:25:00,
2013-07-03 13:36:00,83.0,73.0,-100.00,East,92,8.0,-999.0,73,0.00,,,-99.99,,2013-07-03 18:36:00,
2013-07-03 13:45:00,84.0,72.0,-100.00,ENE,72,6.0,-999.0,68,0.00,,,-99.99,,2013-07-03 18:45:00,
2013-07-03 14:29:00,84.0,72.0,-100.00,ENE,72,6.0,-999.0,68,0.00,,,-99.99,,2013-07-03 19:29:00,
2013-07-03 15:24:00,79.0,74.0,-100.00,ESE,122,10.0,-999.0,83,0.17,,,-99.99,,2013-07-03 20:24:00,
2013-07-03 15:37:00,79.0,74.0,-100.00,ESE,122,10.0,-999.0,83,0.17,,,-99.99,,2013-07-03 20:37:00,
2013-07-03 16:26:00,80.0,78.0,-100.00,SE,132,18.0,-999.0,94,0.07,,,-99.99,,2013-07-03 21:26:00,
2013-07-03 16:35:00,80.0,78.0,-100.00,SE,132,18.0,-999.0,94,0.07,,,-99.99,,2013-07-03 21:35:00,
2013-07-03 16:44:00,80.0,78.0,-100.00,SE,132,18.0,-999.0,94,0.07,,,-99.99,,2013-07-03 21:44:00,
2013-07-03 16:45:00,81.0,76.0,-100.00,SE,128,18.0,-999.0,86,0.00,,,-99.99,,2013-07-03 21:45:00,
2013-07-03 17:26:00,81.0,76.0,-100.00,SE,128,18.0,-999.0,86,0.00,,,-99.99,,2013-07-03 22:26:00,
2013-07-03 17:37:00,81.0,76.0,-100.00,SE,128,18.0,-999.0,86,0.00,,,-99.99,,2013-07-03 22:37:00,
2013-07-03 18:24:00,81.0,78.0,-100.00,ESE,121,16.0,-999.0,90,0.00,,,-99.99,,2013-07-03 23:24:00,
2013-07-03 18:44:00,81.0,78.0,-100.00,ESE,121,16.0,-999.0,90,0.00,,,-99.99,,2013-07-03 23:44:00,
2013-07-03 19:25:00,81.0,77.0,-100.00,ESE,111,13.0,-999.0,89,0.00,,,-99.99,,2013-07-04 00:25:00,
2013-07-03 20:23:00,80.0,76.0,-100.00,ESE,109,14.0,-999.0,88,0.00,,,-99.99,,2013-07-04 01:23:00,
2013-07-03 20:37:00,80.0,76.0,-100.00,ESE,109,14.0,-999.0,88,0.00,,,-99.99,,2013-07-04 01:37:00,
2013-07-03 20:43:00,80.0,76.0,-100.00,ESE,109,14.0,-999.0,88,0.00,,,-99.99,,2013-07-04 01:43:00,
2013-07-03 20:45:00,80.0,76.0,-100.00,East,100,12.0,-999.0,89,0.00,,,-99.99,,2013-07-04 01:45:00,
2013-07-03 21:23:00,80.0,76.0,-100.00,East,100,12.0,-999.0,89,0.00,,,-99.99,,2013-07-04 02:23:00,
2013-07-03 21:39:00,80.0,76.0,-100.00,East,100,12.0,-999.0,89,0.00,,,-99.99,,2013-07-04 02:39:00,
2013-07-03 21:45:00,79.0,77.0,-100.00,ENE,58,11.0,-999.0,93,0.00,,,-99.99,,2013-07-04 02:45:00,
2013-07-03 22:27:00,79.0,77.0,-100.00,ENE,58,11.0,-999.0,93,0.00,,,-99.99,,2013-07-04 03:27:00,
2013-07-03 22:35:00,79.0,77.0,-100.00,ENE,58,11.0,-999.0,93,0.00,,,-99.99,,2013-07-04 03:35:00,
2013-07-03 23:22:00,76.0,-99.9,-100.00,NNE,17,7.0,-999.0,113,0.00,,,-99.99,,2013-07-04 04:22:00,
2013-07-03 23:33:00,76.0,-99.9,-100.00,NNE,17,7.0,-999.0,113,0.00,,,-99.99,,2013-07-04 04:33:00,
2013-07-03 23:43:00,76.0,-99.9,-100.00,NNE,17,7.0,-999.0,113,0.00,,,-99.99,,2013-07-04 04:43:00,